* Astronomy

Members Login
Username 
 
Password 
    Remember Me  
Post Info TOPIC: Comet 54P/de Vico-Swift-NEAT


L

Posts: 131433
Date:
Comet 54P/de Vico-Swift-NEAT
Permalink  
 


Comet 54P/de Vico-Swift-NEAT is at Opposition (3.514 AU) in the constellation Libra on the 4th May 2015 

Ephemeris

Date    TT    R. A. (2000) Decl.     Delta      r    Elong.  Phase   Mag
2015 05 01    14 39 07.9 -21 13 22   3.5254  4.5274   173.3     1.5  22.6
2015 05 02    14 38 26.0 -21 10 54   3.5214  4.5246   173.9     1.4  22.6
2015 05 03    14 37 44.0 -21 08 23   3.5178  4.5218   174.3     1.3  22.6
2015 05 04    14 37 02.0 -21 05 50   3.5145  4.5190   174.5     1.2  22.6
2015 05 05    14 36 19.9 -21 03 14   3.5115  4.5162   174.5     1.2  22.5
2015 05 06    14 35 37.9 -21 00 36   3.5087  4.5134   174.2     1.3  22.5
2015 05 07    14 34 55.8 -20 57 56   3.5063  4.5105   173.8     1.4  22.5
2015 05 08    14 34 13.9 -20 55 14   3.5042  4.5077   173.1     1.5  22.5
2015 05 09    14 33 32.0 -20 52 29   3.5024  4.5049   172.4     1.7  22.5
2015 05 10    14 32 50.2 -20 49 43   3.5009  4.5020   171.6     1.9  22.5
2015 05 11    14 32 08.6 -20 46 55   3.4997  4.4992   170.7     2.1  22.5
2015 05 12    14 31 27.2 -20 44 05   3.4988  4.4964   169.7     2.3  22.5
2015 05 13    14 30 46.0 -20 41 14   3.4983  4.4935   168.8     2.5  22.5
2015 05 14    14 30 05.0 -20 38 22   3.4980  4.4907   167.8     2.7  22.5
2015 05 15    14 29 24.3 -20 35 29   3.4980  4.4878   166.8     3.0  22.5
2015 05 16    14 28 43.9 -20 32 34   3.4983  4.4849   165.7     3.2  22.5
2015 05 17    14 28 03.8 -20 29 39   3.4989  4.4821   164.7     3.4  22.5
2015 05 18    14 27 24.1 -20 26 43   3.4998  4.4792   163.6     3.7  22.5
2015 05 19    14 26 44.8 -20 23 46   3.5010  4.4763   162.6     3.9  22.5
2015 05 20    14 26 05.8 -20 20 49   3.5025  4.4735   161.5     4.1  22.5
2015 05 21    14 25 27.4 -20 17 52   3.5042  4.4706   160.4     4.4  22.5
2015 05 22    14 24 49.4 -20 14 55   3.5063  4.4677   159.3     4.6  22.5
2015 05 23    14 24 11.9 -20 11 58   3.5086  4.4648   158.3     4.8  22.5
2015 05 24    14 23 34.9 -20 09 01   3.5112  4.4619   157.2     5.0  22.5
2015 05 25    14 22 58.5 -20 06 05   3.5141  4.4590   156.1     5.3  22.5
2015 05 26    14 22 22.6 -20 03 09   3.5173  4.4561   155.0     5.5  22.5
2015 05 27    14 21 47.3 -20 00 14   3.5207  4.4532   154.0     5.7  22.5
2015 05 28    14 21 12.7 -19 57 20   3.5244  4.4503   152.9     6.0  22.5
2015 05 29    14 20 38.7 -19 54 28   3.5284  4.4473   151.8     6.2  22.5
2015 05 30    14 20 05.3 -19 51 36   3.5326  4.4444   150.7     6.4  22.5
2015 05 31    14 19 32.6 -19 48 45   3.5370  4.4415   149.6     6.6  22.5


__________________


L

Posts: 131433
Date:
De Vico's Comet
Permalink  
 


Comet 54P/de VicoSwiftNEAT was discovered by Father Francesco de Vico (Rome, Italy) on August 23, 1844. 
Read more



__________________


L

Posts: 131433
Date:
RE: Comet 54P/de Vico-Swift-NEAT
Permalink  
 


Comet 54P/de Vico-Swift-NEAT is at Opposition (4.277 AU) on the 5th April 2014

Ephemeris

Date    TT    R. A. (2000) Decl.     Delta      r     Elong.  Phase   Mag
2014 04 04    12 54 21.3 -08 07 14   4.2783  5.2774   177.3     0.5  24.0
2014 04 05    12 53 46.2 -08 04 07   4.2767  5.2764   177.8     0.4  24.0
2014 04 06    12 53 11.1 -08 01 00   4.2754  5.2753   177.8     0.4  24.0
2014 04 07    12 52 36.0 -07 57 51   4.2743  5.2743   177.2     0.5  24.0
2014 04 08    12 52 00.9 -07 54 42   4.2737  5.2732   176.4     0.7  24.0
2014 04 09    12 51 25.9 -07 51 33   4.2733  5.2722   175.5     0.9  24.0
2014 04 10    12 50 51.0 -07 48 23   4.2732  5.2711   174.4     1.1  24.0
2014 04 11    12 50 16.2 -07 45 14   4.2735  5.2700   173.4     1.3  24.0
2014 04 12    12 49 41.5 -07 42 04   4.2740  5.2689   172.3     1.5  24.0
2014 04 13    12 49 07.0 -07 38 54   4.2749  5.2679   171.2     1.7  24.0
2014 04 14    12 48 32.6 -07 35 45   4.2761  5.2668   170.1     1.9  24.0
2014 04 15    12 47 58.5 -07 32 36   4.2776  5.2657   169.0     2.1  24.0


__________________


L

Posts: 131433
Date:
Permalink  
 

Orbital elements:
54P/de Vico-Swift-NEAT
Epoch 1965 Aug. 28.0 TT = JDT 2439000.5
T 1965 Aug. 23.25175 TT MPC
q 1.6243093 (2000.0) P Q
n 0.15614910 Peri. 325.41298 +0.98574825 +0.16609594
a 3.4154117 Node 25.06638 -0.13659049 +0.88285292
e 0.5244177 Incl. 3.61229 -0.09820090 +0.43929814
P 6.31

MPEC 2009 - Q12


__________________
Page 1 of 1  sorted by
 
Quick Reply

Please log in to post quick replies.



Create your own FREE Forum
Report Abuse
Powered by ActiveBoard